Time,TemperatureF,DewpointF,PressureIn,WindDirection,WindDirectionDegrees,WindSpeedMPH,WindSpeedGustMPH,Humidity,HourlyPrecipIn,Conditions,Clouds,dailyrainin,SolarRadiationWatts/m^2,SoftwareType,DateUTC
2013-05-27 00:07:00,75.1,63.0,30.16,ENE,68,0.0,4.0,67,0.00,,,0.00,0,weatherlink.com 1.10,2013-05-27 04:07:00,
2013-05-27 00:22:00,74.9,63.0,30.17,NE,40,0.0,5.0,67,0.00,,,0.00,0,weatherlink.com 1.10,2013-05-27 04:22:00,
2013-05-27 00:37:00,74.6,63.0,30.17,NNE,16,0.0,2.0,68,0.00,,,0.00,0,weatherlink.com 1.10,2013-05-27 04:37:00,
2013-05-27 00:52:00,74.2,63.0,30.17,NE,54,0.0,2.0,69,0.00,,,0.00,0,weatherlink.com 1.10,2013-05-27 04:52:00,
2013-05-27 01:07:00,74.0,64.0,30.16,NE,53,0.0,2.0,71,0.00,,,0.00,0,weatherlink.com 1.10,2013-05-27 05:07:00,
2013-05-27 01:22:00,73.8,64.0,30.15,NE,55,0.0,3.0,72,0.00,,,0.00,0,weatherlink.com 1.10,2013-05-27 05:22:00,
2013-05-27 01:37:00,73.8,64.0,30.15,ENE,77,1.0,3.0,72,0.00,,,0.00,0,weatherlink.com 1.10,2013-05-27 05:37:00,
2013-05-27 01:52:00,73.7,65.0,30.15,ENE,77,0.0,1.0,73,0.00,,,0.00,0,weatherlink.com 1.10,2013-05-27 05:52:00,
2013-05-27 02:07:00,73.5,65.0,30.14,ESE,103,0.0,1.0,74,0.00,,,0.00,0,weatherlink.com 1.10,2013-05-27 06:07:00,
2013-05-27 02:22:00,73.4,65.0,30.15,East,81,0.0,2.0,75,0.00,,,0.00,0,weatherlink.com 1.10,2013-05-27 06:22:00,
2013-05-27 02:38:00,73.0,65.0,30.14,East,81,0.0,2.0,76,0.00,,,0.00,0,weatherlink.com 1.10,2013-05-27 06:38:00,
2013-05-27 02:53:00,72.3,65.0,30.13,East,81,0.0,0.0,77,0.00,,,0.00,0,weatherlink.com 1.10,2013-05-27 06:53:00,
2013-05-27 03:08:00,71.8,65.0,30.12,East,81,0.0,0.0,78,0.00,,,0.00,0,weatherlink.com 1.10,2013-05-27 07:08:00,
2013-05-27 03:23:00,71.3,65.0,30.12,East,81,0.0,1.0,79,0.00,,,0.00,0,weatherlink.com 1.10,2013-05-27 07:23:00,
2013-05-27 03:38:00,70.8,65.0,30.12,East,81,0.0,1.0,81,0.00,,,0.00,0,weatherlink.com 1.10,2013-05-27 07:38:00,
2013-05-27 03:53:00,70.2,65.0,30.12,East,81,0.0,0.0,83,0.00,,,0.00,0,weatherlink.com 1.10,2013-05-27 07:53:00,
2013-05-27 04:08:00,69.6,65.0,30.11,East,81,0.0,1.0,84,0.00,,,0.00,0,weatherlink.com 1.10,2013-05-27 08:08:00,
2013-05-27 04:23:00,69.4,64.0,30.11,East,81,0.0,0.0,83,0.00,,,0.00,0,weatherlink.com 1.10,2013-05-27 08:23:00,
2013-05-27 04:38:00,69.0,64.0,30.11,East,81,0.0,1.0,84,0.00,,,0.00,0,weatherlink.com 1.10,2013-05-27 08:38:00,
2013-05-27 04:53:00,68.8,64.0,30.11,East,81,0.0,1.0,84,0.00,,,0.00,0,weatherlink.com 1.10,2013-05-27 08:53:00,
2013-05-27 05:08:00,68.3,64.0,30.11,East,81,0.0,0.0,86,0.00,,,0.00,0,weatherlink.com 1.10,2013-05-27 09:08:00,
2013-05-27 05:23:00,67.9,64.0,30.11,East,81,0.0,0.0,88,0.00,,,0.00,0,weatherlink.com 1.10,2013-05-27 09:23:00,
2013-05-27 05:38:00,67.8,64.0,30.11,East,81,0.0,0.0,88,0.00,,,0.00,0,weatherlink.com 1.10,2013-05-27 09:38:00,
2013-05-27 05:53:00,67.7,64.0,30.11,East,81,0.0,0.0,88,0.00,,,0.00,0,weatherlink.com 1.10,2013-05-27 09:53:00,
2013-05-27 06:08:00,67.7,64.0,30.11,East,81,0.0,0.0,88,0.00,,,0.00,0,weatherlink.com 1.10,2013-05-27 10:08:00,
2013-05-27 06:23:00,67.7,64.0,30.11,East,81,0.0,0.0,88,0.00,,,0.00,0,weatherlink.com 1.10,2013-05-27 10:23:00,
2013-05-27 06:38:00,67.6,64.0,30.12,East,81,0.0,0.0,89,0.00,,,0.00,5,weatherlink.com 1.10,2013-05-27 10:38:00,
2013-05-27 06:53:00,67.7,65.0,30.12,East,81,0.0,0.0,90,0.00,,,0.00,14,weatherlink.com 1.10,2013-05-27 10:53:00,
2013-05-27 07:08:00,68.1,65.0,30.12,East,81,0.0,0.0,90,0.00,,,0.00,23,weatherlink.com 1.10,2013-05-27 11:08:00,
2013-05-27 07:23:00,69.0,66.0,30.13,East,81,0.0,0.0,89,0.00,,,0.00,49,weatherlink.com 1.10,2013-05-27 11:23:00,
2013-05-27 07:38:00,70.3,67.0,30.13,East,81,0.0,1.0,89,0.00,,,0.00,93,weatherlink.com 1.10,2013-05-27 11:38:00,
2013-05-27 07:53:00,72.0,68.0,30.13,East,81,0.0,0.0,88,0.00,,,0.00,51,weatherlink.com 1.10,2013-05-27 11:53:00,
2013-05-27 08:08:00,73.8,69.0,30.13,East,97,0.0,2.0,85,0.00,,,0.00,62,weatherlink.com 1.10,2013-05-27 12:08:00,
2013-05-27 08:23:00,76.1,70.0,30.13,NE,50,0.0,3.0,81,0.00,,,0.00,236,weatherlink.com 1.10,2013-05-27 12:23:00,
2013-05-27 08:38:00,78.3,70.0,30.13,ENE,66,2.0,3.0,76,0.00,,,0.00,139,weatherlink.com 1.10,2013-05-27 12:38:00,
2013-05-27 08:53:00,79.2,70.0,30.14,ESE,113,1.0,7.0,74,0.00,,,0.00,172,weatherlink.com 1.10,2013-05-27 12:53:00,
2013-05-27 09:08:00,80.1,71.0,30.14,NE,38,1.0,4.0,73,0.00,,,0.00,160,weatherlink.com 1.10,2013-05-27 13:08:00,
2013-05-27 09:23:00,79.8,70.0,30.14,East,100,3.0,5.0,73,0.00,,,0.00,283,weatherlink.com 1.10,2013-05-27 13:23:00,
2013-05-27 09:38:00,80.3,71.0,30.14,ENE,71,0.0,10.0,72,0.00,,,0.00,237,weatherlink.com 1.10,2013-05-27 13:38:00,
2013-05-27 09:53:00,79.5,72.0,30.14,NNE,27,3.0,8.0,77,0.00,,,0.00,497,weatherlink.com 1.10,2013-05-27 13:53:00,
2013-05-27 10:08:00,75.3,72.0,30.14,SSE,148,1.0,7.0,90,0.00,,,0.00,345,weatherlink.com 1.10,2013-05-27 14:08:00,
2013-05-27 10:23:00,74.6,72.0,30.14,SSE,158,2.0,7.0,90,0.00,,,0.00,346,weatherlink.com 1.10,2013-05-27 14:23:00,
2013-05-27 10:38:00,75.5,71.0,30.14,East,86,0.0,7.0,87,0.00,,,0.00,357,weatherlink.com 1.10,2013-05-27 14:38:00,
2013-05-27 10:53:00,76.8,71.0,30.14,ESE,117,2.0,10.0,82,0.00,,,0.00,302,weatherlink.com 1.10,2013-05-27 14:53:00,
2013-05-27 11:08:00,77.2,71.0,30.15,NE,53,4.0,8.0,80,0.00,,,0.00,274,weatherlink.com 1.10,2013-05-27 15:08:00,
2013-05-27 11:23:00,77.9,72.0,30.15,South,177,1.0,4.0,81,0.00,,,0.00,557,weatherlink.com 1.10,2013-05-27 15:23:00,
2013-05-27 11:38:00,79.1,72.0,30.15,SSE,153,1.0,8.0,78,0.00,,,0.00,408,weatherlink.com 1.10,2013-05-27 15:38:00,
2013-05-27 11:54:00,79.2,72.0,30.16,NNE,29,2.0,7.0,79,0.00,,,0.00,323,weatherlink.com 1.10,2013-05-27 15:54:00,
2013-05-27 12:09:00,79.8,72.0,30.16,South,175,0.0,7.0,76,0.00,,,0.00,258,weatherlink.com 1.10,2013-05-27 16:09:00,
2013-05-27 12:24:00,80.9,72.0,30.15,East,100,3.0,7.0,73,0.00,,,0.00,501,weatherlink.com 1.10,2013-05-27 16:24:00,
2013-05-27 12:39:00,81.4,72.0,30.15,SE,128,1.0,5.0,73,0.00,,,0.00,320,weatherlink.com 1.10,2013-05-27 16:39:00,
2013-05-27 12:54:00,81.3,71.0,30.15,East,91,3.0,7.0,70,0.00,,,0.00,512,weatherlink.com 1.10,2013-05-27 16:54:00,
2013-05-27 13:09:00,81.6,71.0,30.15,SSE,167,4.0,7.0,71,0.00,,,0.00,824,weatherlink.com 1.10,2013-05-27 17:09:00,
2013-05-27 13:24:00,82.3,72.0,30.15,South,178,0.0,11.0,71,0.00,,,0.00,536,weatherlink.com 1.10,2013-05-27 17:24:00,
2013-05-27 13:39:00,81.8,72.0,30.15,East,85,1.0,8.0,71,0.00,,,0.00,663,weatherlink.com 1.10,2013-05-27 17:39:00,
2013-05-27 13:54:00,83.8,73.0,30.15,East,96,1.0,5.0,69,0.00,,,0.00,860,weatherlink.com 1.10,2013-05-27 17:54:00,
2013-05-27 14:09:00,83.4,71.0,30.15,SW,224,1.0,6.0,67,0.00,,,0.00,1011,weatherlink.com 1.10,2013-05-27 18:09:00,
2013-05-27 14:24:00,84.0,71.0,30.14,South,171,2.0,8.0,66,0.00,,,0.00,290,weatherlink.com 1.10,2013-05-27 18:24:00,
2013-05-27 14:39:00,83.2,72.0,30.14,ENE,74,1.0,5.0,68,0.00,,,0.00,292,weatherlink.com 1.10,2013-05-27 18:39:00,
2013-05-27 14:54:00,82.3,71.0,30.13,NE,53,0.0,11.0,69,0.00,,,0.00,156,weatherlink.com 1.10,2013-05-27 18:54:00,
2013-05-27 15:09:00,81.8,71.0,30.13,ENE,57,1.0,7.0,69,0.00,,,0.00,272,weatherlink.com 1.10,2013-05-27 19:09:00,
2013-05-27 15:24:00,82.4,71.0,30.12,East,90,2.0,8.0,69,0.00,,,0.00,318,weatherlink.com 1.10,2013-05-27 19:24:00,
2013-05-27 15:39:00,83.9,73.0,30.12,NNW,347,3.0,8.0,69,0.00,,,0.00,889,weatherlink.com 1.10,2013-05-27 19:39:00,
2013-05-27 15:54:00,83.2,72.0,30.11,East,98,0.0,8.0,68,0.00,,,0.00,343,weatherlink.com 1.10,2013-05-27 19:54:00,
2013-05-27 16:09:00,83.6,72.0,30.11,SE,137,3.0,9.0,67,0.00,,,0.00,214,weatherlink.com 1.10,2013-05-27 20:09:00,
2013-05-27 16:24:00,82.9,72.0,30.10,ENE,74,2.0,8.0,69,0.00,,,0.00,153,weatherlink.com 1.10,2013-05-27 20:24:00,
2013-05-27 16:39:00,83.0,72.0,30.09,SE,132,3.0,7.0,69,0.00,,,0.00,473,weatherlink.com 1.10,2013-05-27 20:39:00,
2013-05-27 16:54:00,82.6,72.0,30.08,ESE,113,2.0,6.0,71,0.00,,,0.00,114,weatherlink.com 1.10,2013-05-27 20:54:00,
2013-05-27 17:09:00,82.7,72.0,30.08,ENE,57,3.0,8.0,69,0.00,,,0.00,132,weatherlink.com 1.10,2013-05-27 21:09:00,
2013-05-27 17:24:00,82.2,72.0,30.08,ENE,60,9.0,9.0,71,0.00,,,0.00,373,weatherlink.com 1.10,2013-05-27 21:24:00,
2013-05-27 17:39:00,81.4,72.0,30.08,East,83,2.0,9.0,73,0.00,,,0.00,153,weatherlink.com 1.10,2013-05-27 21:39:00,
2013-05-27 17:54:00,81.6,71.0,30.08,East,92,2.0,13.0,71,0.00,,,0.00,214,weatherlink.com 1.10,2013-05-27 21:54:00,
2013-05-27 18:09:00,81.3,71.0,30.08,ENE,66,1.0,10.0,72,0.00,,,0.00,93,weatherlink.com 1.10,2013-05-27 22:09:00,
2013-05-27 18:24:00,80.9,71.0,30.08,SE,142,1.0,10.0,72,0.00,,,0.00,104,weatherlink.com 1.10,2013-05-27 22:24:00,
2013-05-27 18:39:00,80.4,71.0,30.09,ESE,122,0.0,6.0,74,0.00,,,0.00,62,weatherlink.com 1.10,2013-05-27 22:39:00,
2013-05-27 18:54:00,80.3,71.0,30.08,SE,142,0.0,7.0,74,0.00,,,0.00,88,weatherlink.com 1.10,2013-05-27 22:54:00,
2013-05-27 19:09:00,80.1,71.0,30.08,South,171,2.0,6.0,74,0.00,,,0.00,46,weatherlink.com 1.10,2013-05-27 23:09:00,
2013-05-27 19:24:00,79.7,71.0,30.09,SE,129,2.0,8.0,75,0.00,,,0.00,25,weatherlink.com 1.10,2013-05-27 23:24:00,
2013-05-27 19:39:00,79.1,71.0,30.09,NNE,14,4.0,6.0,75,0.00,,,0.00,18,weatherlink.com 1.10,2013-05-27 23:39:00,
2013-05-27 19:54:00,78.7,71.0,30.09,ESE,106,0.0,8.0,76,0.00,,,0.00,7,weatherlink.com 1.10,2013-05-27 23:54:00,
2013-05-27 20:09:00,78.4,71.0,30.10,SE,132,0.0,4.0,78,0.00,,,0.00,0,weatherlink.com 1.10,2013-05-28 00:09:00,
2013-05-27 20:24:00,78.4,71.0,30.10,NE,42,0.0,6.0,78,0.00,,,0.00,0,weatherlink.com 1.10,2013-05-28 00:24:00,
2013-05-27 20:39:00,78.2,71.0,30.10,East,98,0.0,4.0,79,0.00,,,0.00,0,weatherlink.com 1.10,2013-05-28 00:39:00,
2013-05-27 20:54:00,78.2,71.0,30.10,NNE,22,1.0,7.0,79,0.00,,,0.00,0,weatherlink.com 1.10,2013-05-28 00:54:00,
2013-05-27 21:09:00,78.3,71.0,30.10,ENE,65,0.0,5.0,79,0.00,,,0.00,0,weatherlink.com 1.10,2013-05-28 01:09:00,
2013-05-27 21:24:00,78.3,71.0,30.10,SSE,152,0.0,8.0,79,0.00,,,0.00,0,weatherlink.com 1.10,2013-05-28 01:24:00,
2013-05-27 21:39:00,78.1,72.0,30.10,North,355,1.0,7.0,80,0.00,,,0.00,0,weatherlink.com 1.10,2013-05-28 01:39:00,
2013-05-27 21:54:00,78.1,72.0,30.11,NNW,347,2.0,7.0,82,0.00,,,0.00,0,weatherlink.com 1.10,2013-05-28 01:54:00,
2013-05-27 22:09:00,77.9,72.0,30.11,East,88,3.0,6.0,82,0.00,,,0.00,0,weatherlink.com 1.10,2013-05-28 02:09:00,
2013-05-27 22:24:00,78.0,72.0,30.12,SE,140,0.0,5.0,81,0.00,,,0.00,0,weatherlink.com 1.10,2013-05-28 02:24:00,
2013-05-27 22:39:00,77.9,71.0,30.12,NNW,337,2.0,5.0,80,0.00,,,0.00,0,weatherlink.com 1.10,2013-05-28 02:39:00,
2013-05-27 22:54:00,76.9,72.0,30.12,East,89,0.0,5.0,84,0.00,,,0.00,0,weatherlink.com 1.10,2013-05-28 02:54:00,
2013-05-27 23:09:00,76.3,72.0,30.12,East,95,0.0,3.0,87,0.00,,,0.00,0,weatherlink.com 1.10,2013-05-28 03:09:00,
2013-05-27 23:24:00,76.0,72.0,30.12,ENE,69,1.0,2.0,88,0.00,,,0.00,0,weatherlink.com 1.10,2013-05-28 03:24:00,
2013-05-27 23:39:00,75.9,72.0,30.12,NE,40,1.0,2.0,88,0.00,,,0.00,0,weatherlink.com 1.10,2013-05-28 03:39:00,
2013-05-27 23:54:00,76.0,72.0,30.13,ENE,71,0.0,3.0,88,0.00,,,0.00,0,weatherlink.com 1.10,2013-05-28 03:54:00,